Fayetteville, NC

5:14 AM EDT on May 23, 2017 (GMT -0400)
Fayetteville Regional-Grannis

Weather History for KFAY - June, 2013

Change the Weather History Date:

Sunday, June 23, 2013

  Actual Average Record
Temperature  
Mean Temperature 81 °F 80 °F  
Max Temperature 90 °F 90 °F 102 °F (1981)
Min Temperature 72 °F 70 °F 51 °F (1947)
Degree Days  
Heating Degree Days 0 0  
Month to date heating degree days 0 0  
Since 1 June heating degree days 0 0  
Since 1 July heating degree days 2762 2732  
Cooling Degree Days 16 15  
Month to date cooling degree days 286 289  
Year to date cooling degree days 535 573  
Since 1 June cooling degree days 286 289  
Growing Degree Days 30 (Base 50)    
Moisture  
Dew Point 71 °F    
Average Humidity 75    
Maximum Humidity 100    
Minimum Humidity 50    
Precipitation  
Precipitation 0.32 in 0.14 in 1.75 in (1948)
Month to date precipitation 6.78 3.28  
Year to date precipitation 20.12 18.95  
Sea Level Pressure  
Sea Level Pressure 30.16 in    
Wind  
Wind Speed 5 mph (South)    
Max Wind Speed 15 mph    
Max Gust Speed 20 mph    
Visibility 8 miles    
Events Rain , Thunderstorm    
T = Trace of Precipitation, MM = Missing Value Source: NWS Daily Summary

Daily Weather History Graph

Daily Weather History Graph

Search for Another Location

Airport or City:

Trip Planner

Search our weather history database for the weather conditions in past years. The results will help you decide how hot, cold, wet, or windy it might be!

Date:

Astronomy

Jun. 23, 2013 Rise Set
Actual Time 6:02 AM EDT 8:33 PM EDT
Civil Twilight 5:32 AM EDT 9:02 PM EDT
Nautical Twilight 4:56 AM EDT 9:39 PM EDT
Astronomical Twilight 4:15 AM EDT 10:20 PM EDT
Moon 8:47 PM EDT 6:15 AM EDT
Length of Visible Light 15h 30m
Length of Day
14h 30m
Full, 100% of the Moon is Illuminated
Jun 23
Full
Jun 30
Last Quarter
Jul 8
New
Jul 15
First Quarter
Jul 22
Full

Hourly Weather History & Observations

Time (EDT) Temp. Heat Index Dew Point Humidity Pressure Visibility Wind Dir Wind Speed Gust Speed Precip Events Conditions
12:43 AM 71.6 °F - 71.6 °F 100% 30.16 in 10.0 mi North 3.5 mph - N/A   Overcast
12:53 AM 73.0 °F - 71.1 °F 93% 30.15 in 10.0 mi NNE 3.5 mph - N/A   Overcast
1:11 AM 73.4 °F - 71.6 °F 94% 30.17 in 10.0 mi NNE 3.5 mph - N/A   Overcast
1:53 AM 73.0 °F - 72.0 °F 96% 30.14 in 10.0 mi Calm Calm - N/A   Overcast
2:09 AM 73.4 °F - 71.6 °F 94% 30.16 in 10.0 mi Calm Calm - N/A   Mostly Cloudy
2:53 AM 73.0 °F - 71.1 °F 93% 30.14 in 10.0 mi South 3.5 mph - N/A   Overcast
3:13 AM 73.4 °F - 71.6 °F 94% 30.16 in 2.0 mi SSE 6.9 mph - 0.12 in Rain Heavy Rain
3:20 AM 73.4 °F - 71.6 °F 94% 30.16 in 3.0 mi South 5.8 mph - 0.12 in Rain Light Rain
3:34 AM 73.4 °F - 71.6 °F 94% 30.15 in 8.0 mi South 8.1 mph - 0.12 in Rain Light Rain
3:46 AM 73.4 °F - 71.6 °F 94% 30.15 in 3.0 mi South 10.4 mph - 0.19 in Rain Heavy Rain
3:53 AM 73.9 °F - 72.0 °F 93% 30.13 in 3.0 mi South 5.8 mph - 0.21 in Rain Light Rain
4:20 AM 73.4 °F - 71.6 °F 94% 30.15 in 10.0 mi SSE 4.6 mph - 0.00 in   Mostly Cloudy
4:33 AM 73.4 °F - 71.6 °F 94% 30.15 in 10.0 mi SSE 5.8 mph - 0.00 in   Mostly Cloudy
4:45 AM 73.4 °F - 71.6 °F 94% 30.15 in 9.0 mi South 4.6 mph - 0.00 in   Mostly Cloudy
4:53 AM 73.0 °F - 72.0 °F 96% 30.13 in 8.0 mi South 4.6 mph - 0.00 in   Mostly Cloudy
5:36 AM 73.4 °F - 71.6 °F 94% 30.16 in 6.0 mi SSE 3.5 mph - N/A   Mostly Cloudy
5:43 AM 71.6 °F - 71.6 °F 100% 30.16 in 5.0 mi SSE 3.5 mph - N/A   Scattered Clouds
5:53 AM 72.0 °F - 71.1 °F 97% 30.15 in 4.0 mi SSE 3.5 mph - N/A   Scattered Clouds
6:14 AM 73.4 °F - 71.6 °F 94% 30.17 in 6.0 mi Calm Calm - N/A   Mostly Cloudy
6:29 AM 73.4 °F - 71.6 °F 94% 30.17 in 5.0 mi Calm Calm - N/A   Overcast
6:40 AM 73.4 °F - 71.6 °F 94% 30.17 in 5.0 mi Calm Calm - N/A   Overcast
6:53 AM 73.0 °F - 72.0 °F 96% 30.16 in 5.0 mi Calm Calm - N/A   Overcast
7:53 AM 75.0 °F - 73.0 °F 94% 30.17 in 7.0 mi SSW 4.6 mph - N/A   Overcast
8:53 AM 77.0 °F - 73.0 °F 88% 30.19 in 9.0 mi SW 3.5 mph - N/A   Overcast
9:25 AM 78.8 °F - 71.6 °F 78% 30.21 in 10.0 mi Calm Calm - N/A   Mostly Cloudy
9:46 AM 78.8 °F - 73.4 °F 83% 30.21 in 10.0 mi Calm Calm - N/A   Mostly Cloudy
9:53 AM 79.0 °F - 73.0 °F 82% 30.20 in 10.0 mi Variable 3.5 mph - N/A   Mostly Cloudy
10:53 AM 81.0 °F 84.9 °F 71.1 °F 72% 30.20 in 10.0 mi SW 5.8 mph - N/A   Scattered Clouds
11:53 AM 84.9 °F 89.4 °F 70.0 °F 61% 30.19 in 10.0 mi South 5.8 mph - N/A   Scattered Clouds
12:53 PM 84.9 °F 88.8 °F 69.1 °F 59% 30.18 in 10.0 mi SSW 6.9 mph - N/A   Clear
1:53 PM 88.0 °F 92.9 °F 70.0 °F 55% 30.16 in 10.0 mi Calm Calm - N/A   Clear
2:53 PM 88.0 °F 92.1 °F 69.1 °F 53% 30.14 in 10.0 mi SE 5.8 mph - N/A   Partly Cloudy
3:53 PM 88.0 °F 92.9 °F 70.0 °F 55% 30.11 in 10.0 mi SE 5.8 mph - N/A   Partly Cloudy
4:53 PM 89.1 °F 92.9 °F 68.0 °F 50% 30.12 in 10.0 mi ESE 5.8 mph - N/A   Mostly Cloudy
5:53 PM 88.0 °F 94.7 °F 72.0 °F 59% 30.10 in 10.0 mi SSE 11.5 mph - N/A   Partly Cloudy
6:53 PM 84.0 °F 89.6 °F 72.0 °F 67% 30.10 in 10.0 mi SSE 6.9 mph - N/A   Clear
6:55 PM 84.2 °F 89.6 °F 71.6 °F 66% 30.12 in 10.0 mi SSE 8.1 mph - N/A Thunderstorm Clear
7:53 PM 78.8 °F - 69.8 °F 74% 30.17 in 10.0 mi West 12.7 mph - N/A   Mostly Cloudy
8:53 PM 73.0 °F - 70.0 °F 90% 30.15 in 10.0 mi SSW 4.6 mph - 0.03 in Rain Light Rain
9:09 PM 73.4 °F - 69.8 °F 88% 30.18 in 10.0 mi SSW 4.6 mph - 0.00 in Rain , Thunderstorm Light Thunderstorms and Rain
9:11 PM 73.4 °F - 69.8 °F 88% 30.18 in 10.0 mi SSW 5.8 mph - 0.00 in Rain , Thunderstorm Light Thunderstorms and Rain
9:51 PM 73.4 °F - 69.8 °F 88% 30.19 in 10.0 mi SSW 5.8 mph - 0.03 in Rain Light Rain
9:53 PM 73.0 °F - 70.0 °F 90% 30.18 in 10.0 mi SSW 5.8 mph - 0.03 in Rain Light Rain
10:53 PM 73.0 °F - 70.0 °F 90% 30.16 in 8.0 mi South 4.6 mph - 0.04 in Rain Light Rain
11:53 PM 75.0 °F - 72.0 °F 90% 30.16 in 10.0 mi South 5.8 mph - 0.01 in   Clear